Regional Weather Roundup
Issued by NWS

Home | Current Version | Previous Version | Graphics & Text | Print | Product List | Glossary On
Versions: 1 2 3 4 5 6 7 8 9 10 11 12 13 14 15 16 17 18 19 20 21 22 23 24 25 26 27 28 29 30 31 32 33 34 35 36 37 38 39 40 41 42 43 44 45 46 47 48 49 50
000
ASUS43 KMPX 241801
RWRMN
WEATHER ROUNDUP FOR MINNESOTA
NATIONAL WEATHER SERVICE TWIN CITIES/CHANHASSEN MN
100 PM CDT SUN SEP 24 2017


NOTE: "FAIR" INDICATES FEW OR NO CLOUDS BELOW 12,000 FEET WITH NO
SIGNIFICANT WEATHER AND/OR OBSTRUCTIONS TO VISIBILITY. N/A MEANS
CURRENT SKY AND/OR WEATHER CONDITIONS ARE NOT AVAILABLE.

MNZ060>063-068>070-241900-
   Twin Cities Metro

CITY           SKY/WX    TMP DP  RH WIND       PRES   REMARKS
TWIN CITIES    PTSUNNY   88  65  46 S17G25    29.91F HX  90
6HR MIN TEMP:  70; 6HR MAX TEMP:  88;

ST PAUL        SUNNY     87  66  49 S12G22    29.91F
CRYSTAL        SUNNY     87  65  47 S15G21    29.89F
BLAINE         MOSUNNY   88  64  45 S12G22    29.91F
LAKEVILLE      SUNNY     86  66  51 S8        29.92F
EDEN PRAIRIE   SUNNY     87  66  49 S15G24    29.90F
6HR MIN TEMP:  69; 6HR MAX TEMP:  87;

SOUTH ST PAUL  SUNNY     88  63  43 S10G16    29.92S
LAKE ELMO      FAIR      86  66  51 S16       29.93F
$$
MNZ001>005-007-008-013>017-022>024-027-028-241900-
   Northwest Minnesota

CITY           SKY/WX    TMP DP  RH WIND       PRES   REMARKS
BEMIDJI        CLOUDY    68  64  88 SW8       29.84S
HALLOCK        LGT RAIN  54  52  94 N17       29.86F
ROSEAU         LGT RAIN  57  52  82 N6        29.84F
CROOKSTON      RAIN      54  54 100 N9        29.83F
FOSSTON        CLOUDY    63  63 100 CALM      29.81F
DETROIT LAKES  CLOUDY    68  63  83 SW12      29.85R
MOORHEAD       CLOUDY    55  55 100 W8        29.85S
PARK RAPIDS    PTSUNNY   75  67  76 S14       29.83F
MAHNOMEN       RAIN      65  63  93 SW9       29.82S
$$
MNZ006-009>011-018-025>026-241900-
   North Central Minnesota

CITY           SKY/WX    TMP DP  RH WIND       PRES   REMARKS
BAUDETTE       LGT RAIN  62  62 100 NW3       29.82F
FLAG ISLAND    DRIZZLE   57  55  94 N6        29.83F
INTL FALLS     CLOUDY    69  64  84 SW8G21    29.84F
6HR MIN TEMP:  59; 6HR MAX TEMP:  70; 6HR PCP:  0.01;

WASKISH        CLOUDY    66  64  94 CALM      29.83S
BIG FORK       MOSUNNY   79  68  69 S12G17    29.84F
LONGVILLE      SUNNY     77  66  69 S10       29.85S
GRAND RAPIDS   CLOUDY    77  68  73 S13G20    29.88F
CRANE LAKE     CLOUDY    75  66  73 S9G17     29.86F
ORR            PTSUNNY   77  64  65 S9        29.83F
WALKER         CLOUDY    74  67  79 S7        29.84S
$$
MNZ012-019>021-037-241900-
   Northeast Minnesota

CITY           SKY/WX    TMP DP  RH WIND       PRES   REMARKS
DULUTH         MOSUNNY   75  67  76 S12       29.92F
6HR MIN TEMP:  63; 6HR MAX TEMP:  76;

ELY            CLOUDY    79  64  61 S13       29.89F
HIBBING        CLOUDY    78  67  68 S8G18     29.88F
EVELETH        MOSUNNY   79  65  61 SW14      29.90F
DULUTH HARBOR  CLOUDY    63  63 100 NE5       29.93F
GRAND MARAIS     N/A     64  62  93 E8        29.93F
$$
MNZ029>031-032-039>041-046>048-054>057-064-241900-
   West Central Minnesota

CITY           SKY/WX    TMP DP  RH WIND       PRES   REMARKS
FERGUS FALLS   CLOUDY    70  66  88 SW16      29.84R
WHEATON        CLOUDY    70  63  78 SW7       29.86S
ALEXANDRIA     PTSUNNY   78  67  68 S15G25    29.87S
ELBOW LAKE     CLOUDY    70  65  85 SW10      29.86R HAZE
WADENA         MOSUNNY   75  64  69 S16       29.84S
GLENWOOD       MOSUNNY   79  66  65 SW15G22   29.87S
APPLETON       PTSUNNY   81  64  57 SW14      29.83R
BENSON         MOSUNNY   81  66  61 SW15G22   29.85S
ORTONVILLE     CLOUDY    72  64  78 NW10      29.85S
MADISON        MOSUNNY   82  70  65 SW12      29.84R
WILLMAR        FAIR      84  66  54 S8G22     29.87S
$$
MNZ033>034-036-042>043-049>051-058-059-241900-
   Central Minnesota

CITY           SKY/WX    TMP DP  RH WIND       PRES   REMARKS
ST CLOUD       MOSUNNY   82  68  62 S16G25    29.88F
6HR MIN TEMP:  63; 6HR MAX TEMP:  83;

SAUK CENTRE    FAIR      80  68  66 S16G24    29.86F
PAYNESVILLE    MOSUNNY   83  67  59 S9G18     29.87F
AITKIN         CLOUDY    81  68  65 S12       29.87S
PINE RIVER     MOSUNNY   75  64  69 S12G17    29.88F
BRAINERD       MOSUNNY   77  67  71 S13       29.87S
STAPLES        MOSUNNY   79  66  65 S15       29.85S
LITTLE FALLS   PTSUNNY   81  61  50 S12       29.87F
LITCHFIELD     MOSUNNY   84  68  58 S6        29.88F
BUFFALO        SUNNY     85  64  49 S9G17     29.90F
MAPLE LAKE     MOSUNNY   85  69  56 S9        29.90F
HUTCHINSON     CLOUDY    85  68  56 S10G20    29.90F
$$
MNZ037-044-045-052-053-241900-
   East Central Minnesota

CITY           SKY/WX    TMP DP  RH WIND       PRES   REMARKS
PRINCETON      CLOUDY    86  66  51 S13G20    29.89F
MORA           MOSUNNY   81  64  57 S9G20     29.91F
RUSH CITY      MOSUNNY   84  67  54 S10       29.91F
MOOSE LAKE     MOSUNNY   82  66  57 S13G18    29.89S
HINCKLEY       FAIR      82  68  61 S14       29.91F
CLOQUET        CLOUDY    81  63  54 S12G18    29.91F
MCGREGOR       MOSUNNY   81  66  61 S15       29.89S
$$
MNZ071>073-080-081-089-090-097-098-241900-
   Southwest Minnesota

CITY           SKY/WX    TMP DP  RH WIND       PRES   REMARKS
MONTEVIDEO     PTSUNNY   82  70  65 W14G20    29.84S
GRANITE FALLS  CLOUDY    84  68  57 S14G25    29.86S
CANBY          PTSUNNY   78  67  67 SW8G18    29.86R
MARSHALL       CLOUDY    82  67  60 SW14      29.85S
REDWOOD FALLS  MOSUNNY   87  63  44 S20G30    29.86F
OLIVIA         MOSUNNY   84  64  51 S16G24    29.86F
PIPESTONE      MOSUNNY   81  66  61 SW16G24   29.88S
WORTHINGTON    CLOUDY    84  63  49 S20G26    29.90F
JACKSON        SUNNY     86  61  42 S16G22    29.92F
TRACY          MOSUNNY   85  66  52 S16G28    29.87S
SLAYTON        MOSUNNY   83  57  40 S21G29    29.89F
$$
MNZ065>067-074>077-082>085-091>093-241900-
   South Central Minnesota

CITY           SKY/WX    TMP DP  RH WIND       PRES   REMARKS
MANKATO        MOSUNNY   86  64  47 S8G23     29.91F
NEW ULM        MOSUNNY   86  63  45 S16G22    29.89F
ST JAMES       SUNNY     88  63  42 S15G24    29.91S
FAIRMONT       SUNNY     87  63  44 S15G22    29.92F
FARIBAULT      SUNNY     86  64  48 S12G17    29.94F
OWATONNA       SUNNY     88  64  45 S13G23    29.94F
WASECA         MOSUNNY   82  61  47 S15G23    29.95S
ALBERT LEA     SUNNY     90  64  43 S10G16    29.95F HX  91
$$
MNZ078>079-086>088-094>096-241900-
   Southeast Minnesota

CITY           SKY/WX    TMP DP  RH WIND       PRES   REMARKS
ROCHESTER      MOSUNNY   87  64  46 S16G28    29.98F
6HR MIN TEMP:  67; 6HR MAX TEMP:  87;

RED WING       SUNNY     88  61  40 S7        29.93F
STANTON        SUNNY     87  63  43 SW15G23   29.92F
DODGE CENTER   SUNNY     88  59  37 S14G22    29.97F
WINONA         SUNNY     90  61  37 S5        29.97F
AUSTIN         MOSUNNY   84  63  48 S15G21    29.96F
PRESTON        MOSUNNY   86  60  41 S13G22    29.99F
$$
ABBREVIATIONS USED IN REMARKS
   TC - TEMPERATURES IN CELSIUS
  WCI - WIND CHILL INDEX
   HX - HEAT INDEX
  VSB - VISIBILITY
$$



USA.gov is the U.S. government's official web portal to all federal, state and local government web resources and services.